AZERSPACE 2 (IS-38)

Last updated on Wed Sep 09 2026 00:03:02 GMT+0000 (Coordinated Universal Time)

1 43632U 18074A 26251.45400654 .00000000 00000+0 00000+0 0 9990 2 43632 0.0252 149.5278 0001421 24.7403 21.8003 1.00269577 29285
UTC large
Height (km)
Speed (km/s)
/
Latitude / Longitude
Inclination (degrees)
Orbital Period (minutes)
Azimuth
Elevation
Range (km)
Doppler Factor

Next 0 passes for location: London (51.5072 / 0.1276)

No passes found over London.
AZERSPACE 2 (IS-38)